Key statistics
Satellite DMSP 5D-2 F11 DEB at a glance.
Uptime
12216
Days in orbit
Revolutions
≈ 15.4
Per day
Orbit
SSO
Sun Synchronous Orbit
Inclination
98.5
Latest
Satellite identification and parameters
Extended collection of information and parameters for DMSP 5D-2 F11 DEB.
Object identification
Identified? True
Debris? True
Object name: DMSP 5D-2 F11 DEB
International designator: 1991-082BU
Object number (NORAD): 29073
Object ID (CCSDS): 29073
Country: UNITED STATES OF AMERICA (US)
Current information (Y/N): Y
RCS size: SMALL
Orbital parameters
Decay date: May 9, 2025
Period: 93.325 minutes
Inclination: 98.5216 deg
SMA: 6815.417 km
Apoapsis: 449.998 km
Periapsis: 424.566 km
RAAN: 218.4695 deg
Eccentricy: 0.0018658
Argument of periapsis: 267.7625 deg
Mean anomaly: 92.1483 deg
Mean motion: 15.42993483 rev/day
Mean motion (dot): 0.00730195 rev/day2
B* drag term: 0.015246 1/REarth
Two-line elements (TLE)
Creation date: May 2, 2025, 2:33 a.m.
Reference frame: TEME
Reference center: EARTH
Epoch: April 17, 2025, 6:39 p.m. UTC
TLE line 0: 0 DMSP 5D-2 F11 DEB
TLE line 1: 1 29073U 91082BU 25107.77730120 .00730195 00000-0 15246-1 0 9997
TLE line 2: 2 29073 98.5216 218.4695 0018658 267.7625 92.1483 15.42993483620869
Live tracking on map
Satellite DMSP 5D-2 F11 DEB has decayed and is no longer in orbit. No tracking available.
In-orbit conjunctions
Satellite DMSP 5D-2 F11 DEB has decayed and is no longer in orbit. No conjunctions available.
Associated space launch
Military meteorological satellite
DMSP 5D-2 F11 DEB was lifted into orbit during the mission ‘Atlas E | DMSP-5D2 F11’, on board a Atlas E space rocket.
The launch took place on Nov. 28, 1991, 1:23 p.m. from Space Launch Complex 3W.
For more information about the launch, click the button.
Atlas E | DMSP-5D2 F11
Agency: N/A
Status: Launch Successful
Launch date: Nov. 28, 1991, 1:23 p.m. UTC
Rocket: Atlas E
Launch pad: Space Launch Complex 3W
Location: Vandenberg SFB, CA, USA
...
Latest news about this satellite
There are no fresh news available about this satellite. Check back as we update our databases every day.
Newsletter sign-up
Weekly statistics, charts and insights to help you stay on top of the space industry.
